period_start,C,m1,H,J0,J1,J2,J3,J4,J5,JA,JB,JC,JD,JJ,JK,JN,#
2016-05-12 00:01:06,0.06,0.76,0.00,17.96,22.59,26.63,14.82,49.52,1011.21,2055.98,3217.38,2971.17,3351.45,599.73,602.85,33.58,0000 0000 0000 0000 000000
2016-05-12 00:06:07,0.03,0.76,0.00,18.00,22.62,26.60,14.90,50.00,1011.17,2055.99,3216.47,2970.74,3350.78,600.04,603.15,33.64,0000 0000 0000 0000 000000
2016-05-12 00:11:08,0.03,0.77,0.00,18.04,22.63,26.62,14.73,49.67,1011.21,2055.97,3215.73,2970.03,3350.02,600.20,603.11,33.69,0000 0000 0000 0000 000000
2016-05-12 00:16:09,0.04,0.77,0.00,18.07,22.64,26.68,14.78,49.76,1011.10,2055.96,3214.98,2969.55,3349.24,599.95,602.72,33.74,0000 0000 0000 0000 000000
2016-05-12 00:21:10,0.02,0.77,0.00,18.09,22.66,26.73,14.73,49.61,1010.96,2055.92,3214.16,2969.01,3348.76,600.08,602.76,33.79,0000 0000 0000 0000 000000
2016-05-12 00:26:12,0.04,0.77,0.00,18.11,22.68,26.80,14.84,49.61,1010.86,2055.89,3213.35,2968.48,3348.01,599.97,602.64,33.84,0000 0000 0000 0000 000000
2016-05-12 00:31:13,0.00,0.77,0.00,18.13,22.69,26.83,14.71,49.58,1010.87,2055.52,3212.44,2967.97,3347.17,599.77,602.48,33.89,0000 0000 0000 0000 000000
2016-05-12 00:36:15,0.02,0.77,0.00,18.14,22.72,26.87,14.85,49.74,1010.79,2055.22,3211.65,2967.22,3346.50,600.01,602.51,33.94,0000 0000 0000 0000 000000
2016-05-12 00:41:16,0.03,0.77,0.00,18.17,22.73,26.86,14.81,49.45,1010.81,2055.05,3210.70,2966.70,3345.68,600.11,602.68,33.99,0000 0000 0000 0000 000000
2016-05-12 00:46:17,0.06,0.78,0.00,18.19,22.75,26.85,14.81,49.55,1010.80,2055.02,3209.49,2965.82,3344.61,600.35,602.70,34.04,0000 0000 0000 0000 000000
2016-05-12 00:51:18,0.05,0.78,0.00,18.22,22.77,26.89,14.88,49.77,1010.81,2055.00,3208.09,2964.95,3343.53,600.22,602.60,34.09,0000 0000 0000 0000 000000
2016-05-12 00:56:19,0.07,0.78,0.00,18.23,22.78,26.96,14.85,49.77,1010.80,2055.00,3206.52,2963.95,3342.34,599.81,602.30,34.14,0000 0000 0000 0000 000000
2016-05-12 01:01:21,0.05,0.79,0.00,18.28,22.80,26.98,14.74,49.38,1010.82,2055.00,3205.39,2963.07,3341.40,600.21,602.59,34.19,0000 0000 0000 0000 000000
2016-05-12 01:06:22,0.05,0.79,0.00,18.31,22.82,26.97,14.76,49.52,1010.80,2055.00,3204.37,2962.49,3340.49,599.85,602.05,34.24,0000 0000 0000 0000 000000
2016-05-12 01:11:24,0.05,0.79,0.00,18.33,22.84,27.02,14.77,49.71,1010.78,2054.99,3203.20,2961.73,3339.46,600.08,602.21,34.29,0000 0000 0000 0000 000000
2016-05-12 01:16:25,0.04,0.80,0.00,18.36,22.87,27.03,14.81,49.77,1010.77,2054.96,3202.27,2961.02,3338.69,599.83,601.83,34.34,0000 0000 0000 0000 000000
2016-05-12 01:21:26,0.04,0.80,0.00,18.39,22.89,27.04,14.91,49.91,1010.76,2054.91,3201.33,2960.33,3337.91,600.71,602.71,34.39,0000 0000 0000 0000 000000
2016-05-12 01:26:28,0.02,0.80,0.00,18.42,22.91,27.06,14.87,49.83,1010.76,2054.79,3200.43,2959.83,3337.03,599.90,601.85,34.44,0000 0000 0000 0000 000000
2016-05-12 01:31:29,0.01,0.80,0.00,18.44,22.93,27.10,14.75,49.63,1010.76,2054.43,3199.36,2959.02,3336.10,600.04,601.79,34.49,0000 0000 0000 0000 000000
2016-05-12 01:36:30,0.04,0.80,0.00,18.47,22.96,27.09,14.73,49.33,1010.77,2054.10,3198.23,2958.16,3335.11,599.88,601.81,34.54,0000 0000 0000 0000 000000
2016-05-12 01:41:31,0.05,0.80,0.00,18.49,22.98,27.12,14.75,49.72,1010.76,2054.05,3197.34,2957.63,3334.36,599.90,601.52,34.59,0000 0000 0000 0000 000000
2016-05-12 01:46:33,0.04,0.81,0.00,18.50,23.00,27.17,14.75,49.64,1010.76,2054.01,3196.24,2956.89,3333.40,599.99,601.44,34.65,0000 0000 0000 0000 000000
2016-05-12 01:51:34,0.05,0.81,0.00,18.54,23.02,27.16,14.86,49.78,1010.77,2054.01,3195.29,2956.05,3332.52,600.09,601.79,34.70,0000 0000 0000 0000 000000
2016-05-12 01:56:35,0.05,0.81,0.00,18.57,23.04,27.14,14.73,49.67,1010.83,2054.00,3194.25,2955.39,3331.59,599.97,601.50,34.75,0000 0000 0000 0000 000000
2016-05-12 02:01:37,0.05,0.81,0.00,18.62,23.07,27.22,14.79,49.77,1010.92,2053.99,3193.11,2954.65,3330.67,600.13,601.75,34.80,0000 0000 0000 0000 000000
2016-05-12 02:06:38,0.05,0.82,0.00,18.64,23.09,27.24,14.83,49.87,1011.11,2053.98,3191.99,2953.82,3329.67,600.01,601.76,34.85,0000 0000 0000 0000 000000
2016-05-12 02:11:39,0.10,0.82,0.00,18.68,23.12,27.28,14.76,49.72,1011.15,2053.97,3190.15,2952.55,3328.20,599.81,601.40,34.90,0000 0000 0000 0000 000000
2016-05-12 02:16:40,0.07,0.83,0.00,18.73,23.14,27.30,14.82,49.91,1011.21,2053.86,3188.08,2951.16,3326.62,600.34,601.89,34.95,0000 0000 0000 0000 000000
2016-05-12 02:21:42,0.02,0.83,0.00,18.75,23.17,27.35,14.69,49.66,1011.22,2053.47,3186.60,2950.10,3325.41,599.91,601.52,35.00,0000 0000 0000 0000 000000
2016-05-12 02:26:43,0.04,0.83,0.00,18.78,23.20,27.38,14.74,49.87,1011.23,2053.17,3185.31,2949.19,3324.31,600.06,601.50,35.05,0000 0000 0000 0000 000000
2016-05-12 02:31:44,0.05,0.83,0.00,18.82,23.23,27.38,14.79,49.80,1011.21,2053.07,3184.33,2948.52,3323.49,600.22,601.54,35.10,0000 0000 0000 0000 000000
2016-05-12 02:36:46,0.04,0.83,0.00,18.84,23.25,27.42,14.77,49.74,1011.23,2053.01,3183.42,2947.84,3322.56,599.85,601.28,35.15,0000 0000 0000 0000 000000
2016-05-12 02:41:47,0.05,0.84,0.00,18.90,23.28,27.44,14.70,49.74,1011.24,2053.00,3182.39,2947.03,3321.67,599.80,601.02,35.20,0000 0000 0000 0000 000000
2016-05-12 02:46:48,0.05,0.84,0.00,18.93,23.31,27.47,14.76,49.77,1011.24,2053.00,3181.43,2946.26,3320.76,599.89,601.04,35.25,0000 0000 0000 0000 000000
2016-05-12 02:51:50,0.03,0.84,0.00,18.96,23.34,27.54,14.77,49.67,1011.25,2052.99,3180.61,2945.72,3319.97,600.08,601.16,35.30,0000 0000 0000 0000 000000
2016-05-12 02:56:51,0.04,0.84,0.00,19.00,23.37,27.56,14.75,49.75,1011.25,2052.99,3179.70,2944.98,3319.04,599.94,600.86,35.35,0000 0000 0000 0000 000000
2016-05-12 03:01:52,0.05,0.85,0.00,19.04,23.40,27.63,14.74,49.59,1011.25,2052.94,3178.63,2944.14,3318.09,599.97,600.89,35.40,0000 0000 0000 0000 000000
2016-05-12 03:06:53,0.01,0.85,0.00,19.09,23.43,27.68,14.66,49.65,1011.27,2052.63,3177.68,2943.59,3317.17,599.82,600.61,35.45,0000 0000 0000 0000 000000
2016-05-12 03:11:55,0.01,0.85,0.00,19.13,23.46,27.69,14.65,49.67,1011.32,2052.18,3176.70,2942.90,3316.27,599.49,600.18,35.51,0000 0000 0000 0000 000000
2016-05-12 03:16:56,0.04,0.85,0.00,19.16,23.50,27.70,14.80,49.83,1011.35,2052.05,3175.80,2942.08,3315.48,600.30,601.04,35.56,0000 0000 0000 0000 000000
2016-05-12 03:21:58,0.05,0.85,0.00,19.20,23.53,27.74,14.77,49.83,1011.45,2052.01,3174.86,2941.47,3314.61,600.07,600.77,35.61,0000 0000 0000 0000 000000
2016-05-12 03:26:59,0.04,0.85,0.00,19.25,23.56,27.80,14.79,49.53,1011.57,2052.00,3173.85,2940.79,3313.66,600.04,600.79,35.66,0000 0000 0000 0000 000000
2016-05-12 03:32:00,0.05,0.86,0.00,19.29,23.59,27.85,14.77,49.42,1011.64,2051.99,3172.79,2940.02,3312.71,600.06,600.71,35.71,0000 0000 0000 0000 000000
2016-05-12 03:37:01,0.04,0.86,0.00,19.33,23.63,27.84,14.80,49.61,1011.70,2051.96,3171.95,2939.27,3311.90,600.15,600.68,35.76,0000 0000 0000 0000 000000
2016-05-12 03:42:03,0.03,0.86,0.00,19.38,23.66,27.88,14.70,49.44,1011.71,2051.73,3171.01,2938.55,3311.01,599.87,600.30,35.81,0000 0000 0000 0000 000000
2016-05-12 03:47:04,-0.01,0.86,0.00,19.42,23.70,27.89,14.72,49.62,1011.71,2051.29,3170.10,2937.96,3310.11,600.00,600.41,35.86,0000 0000 0000 0000 000000
2016-05-12 03:52:05,0.04,0.86,0.00,19.45,23.73,27.91,14.71,49.50,1011.73,2051.05,3169.19,2937.12,3309.25,600.09,600.41,35.91,0000 0000 0000 0000 000000
2016-05-12 03:57:06,0.05,0.87,0.00,19.49,23.77,27.96,14.66,49.47,1011.72,2051.00,3168.22,2936.46,3308.38,599.72,600.03,35.96,0000 0000 0000 0000 000000
2016-05-12 04:02:07,0.03,0.87,0.00,19.54,23.81,28.02,14.73,49.57,1011.73,2051.00,3167.51,2935.91,3307.67,599.77,599.96,36.01,0000 0000 0000 0000 000000
2016-05-12 04:07:08,0.05,0.87,0.00,19.58,23.85,28.00,14.73,49.52,1011.73,2051.00,3166.53,2935.09,3306.74,600.18,600.16,36.06,0000 0000 0000 0000 000000
2016-05-12 04:12:10,0.05,0.87,0.00,19.63,23.89,28.07,14.67,49.51,1011.72,2050.98,3165.58,2934.35,3305.91,599.92,599.85,36.11,0000 0000 0000 0000 000000
2016-05-12 04:17:11,0.01,0.87,0.00,19.67,23.93,28.11,14.70,49.57,1011.73,2050.88,3164.82,2933.87,3305.08,600.20,600.07,36.16,0000 0000 0000 0000 000000
2016-05-12 04:22:13,-0.01,0.88,0.00,19.70,23.97,28.13,14.72,49.61,1011.73,2050.36,3164.02,2933.07,3304.27,600.17,600.02,36.21,0000 0000 0000 0000 000000
2016-05-12 04:27:14,0.04,0.87,0.00,19.76,24.02,28.22,14.71,49.54,1011.73,2050.04,3163.22,2932.47,3303.47,599.70,599.39,36.26,0000 0000 0000 0000 000000
2016-05-12 04:32:15,0.03,0.88,0.00,19.81,24.06,28.18,14.76,49.63,1011.73,2050.00,3162.41,2931.97,3302.73,600.06,599.72,36.31,0000 0000 0000 0000 000000
2016-05-12 04:37:17,0.04,0.88,0.00,19.85,24.11,28.23,14.68,49.57,1011.73,2050.00,3161.75,2931.23,3302.02,600.21,599.77,36.36,0000 0000 0000 0000 000000
2016-05-12 04:42:18,0.02,0.88,0.00,19.88,24.15,28.22,14.75,49.67,1011.73,2049.97,3161.02,2930.90,3301.25,600.00,599.56,36.41,0000 0000 0000 0000 000000
2016-05-12 04:47:19,0.01,0.88,0.00,19.93,24.19,28.29,14.70,49.54,1011.73,2049.70,3160.29,2930.10,3300.67,599.70,599.07,36.46,0000 0000 0000 0000 000000
2016-05-12 04:52:20,-0.00,0.88,0.00,19.95,24.24,28.27,14.76,49.71,1011.73,2049.11,3159.65,2929.59,3299.92,600.45,599.83,36.52,0000 0000 0000 0000 000000
2016-05-12 04:57:22,0.03,0.88,0.00,19.99,24.28,28.30,14.63,49.35,1011.75,2049.01,3158.71,2928.93,3299.02,599.96,599.10,36.57,0000 0000 0000 0000 000000
2016-05-12 05:02:23,0.05,0.89,0.00,20.04,24.32,28.38,14.81,49.63,1011.78,2049.00,3157.86,2928.10,3298.18,600.57,599.58,36.62,0000 0000 0000 0000 000000
2016-05-12 05:07:24,0.02,0.89,0.00,20.08,24.36,28.39,14.66,49.54,1011.93,2048.99,3157.04,2927.90,3297.61,599.71,599.08,36.67,0000 0000 0000 0000 000000
2016-05-12 05:12:25,0.03,0.89,0.00,20.13,24.41,28.45,14.66,49.61,1012.06,2048.92,3156.36,2927.11,3296.91,599.76,598.94,36.72,0000 0000 0000 0000 000000
2016-05-12 05:17:26,0.03,0.89,0.00,20.17,24.44,28.51,14.68,49.67,1012.19,2048.74,3155.48,2926.55,3296.07,599.88,599.02,36.77,0000 0000 0000 0000 000000
2016-05-12 05:22:27,-0.02,0.89,0.00,20.20,24.48,28.54,14.74,49.47,1012.21,2048.22,3154.92,2926.00,3295.51,600.12,599.30,36.82,0000 0000 0000 0000 000000
2016-05-12 05:27:29,0.04,0.89,0.00,20.25,24.52,28.56,14.70,49.50,1012.22,2048.02,3154.08,2925.42,3294.76,599.94,598.88,36.87,0000 0000 0000 0000 000000
2016-05-12 05:32:30,0.03,0.89,0.00,20.29,24.56,28.60,14.71,49.52,1012.22,2048.01,3153.22,2924.93,3294.02,600.25,599.27,36.92,0000 0000 0000 0000 000000
2016-05-12 05:37:32,0.05,0.90,0.00,20.32,24.59,28.67,14.84,49.77,1012.22,2048.00,3152.52,2924.16,3293.28,600.30,599.22,36.97,0000 0000 0000 0000 000000
2016-05-12 05:42:33,0.03,0.90,0.00,20.34,24.63,28.73,14.76,49.51,1012.22,2047.94,3151.74,2923.74,3292.56,600.40,599.15,37.02,0000 0000 0000 0000 000000
2016-05-12 05:47:34,-0.02,0.90,0.00,20.38,24.67,28.71,14.66,49.53,1012.22,2047.48,3150.95,2923.03,3291.86,600.01,598.68,37.07,0000 0000 0000 0000 000000
2016-05-12 05:52:36,0.02,0.90,0.00,20.41,24.71,28.80,14.70,49.60,1012.22,2047.10,3150.11,2922.46,3291.05,599.77,598.43,37.12,0000 0000 0000 0000 000000
2016-05-12 05:57:37,0.03,0.90,0.00,20.45,24.74,28.83,14.68,49.32,1012.22,2047.01,3149.34,2921.96,3290.39,600.05,598.61,37.17,0000 0000 0000 0000 000000
2016-05-12 06:02:38,0.05,0.90,0.00,20.49,24.78,28.85,14.68,49.38,1012.22,2047.00,3148.64,2921.16,3289.64,600.10,598.66,37.22,0000 0000 0000 0000 000000
2016-05-12 06:07:40,0.04,0.90,0.00,20.52,24.81,28.90,14.65,49.43,1012.23,2047.00,3147.71,2920.62,3288.90,599.56,598.16,37.27,0000 0000 0000 0000 000000
2016-05-12 06:12:41,0.02,0.91,0.00,20.55,24.85,28.90,14.65,49.48,1012.25,2047.00,3146.94,2920.01,3288.09,599.73,598.19,37.32,0000 0000 0000 0000 000000
2016-05-12 06:17:43,0.05,0.91,0.00,20.58,24.89,29.00,14.67,49.47,1012.24,2047.00,3146.10,2919.38,3287.39,599.89,598.45,37.37,0000 0000 0000 0000 000000
2016-05-12 06:22:44,0.02,0.91,0.00,20.61,24.92,29.07,14.69,49.52,1012.32,2046.97,3145.42,2918.95,3286.65,600.13,598.36,37.43,0000 0000 0000 0000 000000
2016-05-12 06:27:45,0.03,0.91,0.00,20.65,24.96,29.09,14.77,49.47,1012.43,2046.95,3144.77,2918.15,3285.95,600.29,598.60,37.48,0000 0000 0000 0000 000000
2016-05-12 06:32:47,0.01,0.91,0.00,20.67,24.99,29.11,14.65,49.58,1012.38,2046.69,3143.98,2917.75,3285.12,599.70,598.04,37.53,0000 0000 0000 0000 000000
2016-05-12 06:37:48,-0.01,0.91,0.00,20.69,25.03,29.13,14.61,49.49,1012.48,2046.15,3143.13,2917.03,3284.44,599.94,598.23,37.58,0000 0000 0000 0000 000000
2016-05-12 06:42:49,0.04,0.91,0.00,20.73,25.06,29.17,14.73,49.49,1012.65,2046.00,3142.38,2916.50,3283.77,600.02,598.47,37.63,0000 0000 0000 0000 000000
2016-05-12 06:47:50,0.03,0.92,0.00,20.75,25.10,29.24,14.66,49.52,1012.71,2046.00,3141.50,2915.93,3282.92,599.73,598.03,37.68,0000 0000 0000 0000 000000
2016-05-12 06:52:52,0.04,0.92,0.00,20.75,25.13,29.25,14.65,49.59,1012.71,2045.99,3140.80,2915.11,3282.08,599.96,598.25,37.73,0000 0000 0000 0000 000000
2016-05-12 06:57:53,0.03,0.92,0.00,20.78,25.17,29.34,14.66,49.59,1012.71,2045.97,3140.03,2914.81,3281.47,599.92,598.17,37.78,0000 0000 0000 0000 000000
2016-05-12 07:02:54,0.03,0.92,0.00,20.82,25.20,29.37,14.69,49.44,1012.71,2045.86,3139.17,2914.06,3280.87,600.53,598.54,37.83,0000 0000 0000 0000 000000
2016-05-12 07:07:55,-0.01,0.92,0.00,20.85,25.24,29.40,14.63,49.52,1012.71,2045.39,3138.50,2913.52,3280.04,599.69,597.88,37.88,0000 0000 0000 0000 000000
2016-05-12 07:12:57,0.02,0.92,0.00,20.88,25.27,29.41,14.60,49.43,1012.72,2045.08,3137.68,2912.98,3279.20,600.02,598.06,37.93,0000 0000 0000 0000 000000
2016-05-12 07:17:58,0.04,0.92,0.00,20.91,25.31,29.42,14.70,49.63,1012.72,2045.01,3136.81,2912.18,3278.45,600.07,598.08,37.98,0000 0000 0000 0000 000000
2016-05-12 07:22:59,0.04,0.93,0.00,20.96,25.34,29.48,14.68,49.61,1012.72,2045.00,3135.88,2911.70,3277.66,600.03,597.94,38.03,0000 0000 0000 0000 000000
2016-05-12 07:28:01,0.03,0.93,0.00,21.01,25.37,29.50,14.68,49.47,1012.72,2044.99,3135.04,2911.00,3276.86,599.98,597.74,38.08,0000 0000 0000 0000 000000
2016-05-12 07:33:02,0.05,0.93,0.00,21.03,25.41,29.52,14.64,49.39,1012.74,2044.98,3134.46,2910.23,3276.07,600.03,597.72,38.13,0000 0000 0000 0000 000000
2016-05-12 07:38:03,0.03,0.93,0.00,21.07,25.44,29.62,14.58,49.48,1012.79,2044.96,3133.72,2909.84,3275.31,599.61,597.35,38.18,0000 0000 0000 0000 000000
2016-05-12 07:43:04,0.02,0.93,0.00,21.13,25.47,29.61,14.63,49.40,1012.91,2044.78,3132.97,2909.06,3274.62,599.87,597.71,38.23,0000 0000 0000 0000 000000
2016-05-12 07:48:06,-0.00,0.93,0.00,21.19,25.51,29.59,14.63,49.23,1012.98,2044.31,3132.13,2908.62,3273.89,600.11,597.58,38.28,0000 0000 0000 0000 000000
2016-05-12 07:53:07,0.03,0.94,0.00,21.22,25.55,29.58,14.59,49.18,1012.95,2044.03,3131.25,2907.89,3272.94,599.67,597.11,38.33,0000 0000 0000 0000 000000
2016-05-12 07:58:09,0.05,0.94,0.00,21.26,25.58,29.63,14.70,49.29,1013.08,2044.00,3130.39,2907.08,3272.08,600.05,597.48,38.39,0000 0000 0000 0000 000000
2016-05-12 08:03:10,0.05,0.94,0.00,21.30,25.61,29.62,14.73,49.52,1013.15,2044.00,3129.49,2906.50,3271.28,600.23,597.56,38.44,0000 0000 0000 0000 000000
2016-05-12 08:08:11,0.04,0.94,0.00,21.36,25.65,29.62,14.74,49.52,1013.19,2043.99,3128.63,2905.89,3270.45,600.49,597.82,38.49,0000 0000 0000 0000 000000
2016-05-12 08:13:12,0.03,0.94,0.00,21.39,25.68,29.67,14.59,49.48,1013.20,2043.94,3127.91,2905.12,3269.74,600.00,597.18,38.54,0000 0000 0000 0000 000000
2016-05-12 08:18:13,-0.02,0.94,0.00,21.40,25.71,29.68,14.63,49.38,1013.20,2043.37,3127.05,2904.61,3268.91,599.69,597.07,38.59,0000 0000 0000 0000 000000
2016-05-12 08:23:15,0.02,0.94,0.00,21.43,25.75,29.75,14.62,49.53,1013.21,2043.04,3126.13,2903.99,3268.05,599.87,597.07,38.64,0000 0000 0000 0000 000000
2016-05-12 08:28:16,0.05,0.95,0.00,21.44,25.78,29.79,14.69,49.41,1013.22,2043.00,3125.26,2903.26,3267.22,599.87,597.04,38.69,0000 0000 0000 0000 000000
2016-05-12 08:33:17,0.05,0.95,0.00,21.43,25.81,29.85,14.67,49.40,1013.26,2043.00,3124.36,2902.65,3266.45,600.34,597.56,38.74,0000 0000 0000 0000 000000
2016-05-12 08:38:18,0.03,0.95,0.00,21.43,25.84,29.92,14.68,49.48,1013.32,2042.99,3123.43,2902.01,3265.71,599.95,597.21,38.79,0000 0000 0000 0000 000000
2016-05-12 08:43:20,0.04,0.95,0.00,21.40,25.86,29.95,14.72,49.58,1013.55,2042.98,3122.70,2901.42,3264.98,600.18,597.63,38.84,0000 0000 0000 0000 000000
2016-05-12 08:48:21,0.03,0.96,0.00,21.40,25.89,30.05,14.62,49.42,1013.68,2042.93,3121.73,2900.96,3264.13,599.96,597.41,38.89,0000 0000 0000 0000 000000
2016-05-12 08:53:22,0.02,0.96,0.00,21.38,25.91,30.05,14.60,49.38,1013.69,2042.66,3120.79,2900.15,3263.41,600.02,597.61,38.94,0000 0000 0000 0000 000000
2016-05-12 08:58:24,0.00,0.96,0.00,21.37,25.93,30.08,14.70,49.42,1013.69,2042.17,3119.95,2899.65,3262.82,600.53,598.10,38.99,0000 0000 0000 0000 000000
2016-05-12 09:03:25,0.03,0.96,0.00,21.36,25.95,30.06,14.68,49.42,1013.71,2042.07,3119.04,2899.01,3262.02,599.97,597.57,39.04,0000 0000 0000 0000 000000
2016-05-12 09:08:26,0.05,0.96,0.00,21.35,25.97,30.10,14.58,49.24,1013.70,2042.01,3118.09,2898.34,3261.16,599.61,597.27,39.09,0000 0000 0000 0000 000000
2016-05-12 09:13:28,0.03,0.96,0.00,21.34,25.99,30.06,14.65,49.53,1013.71,2042.00,3117.31,2897.98,3260.50,599.81,597.44,39.14,0000 0000 0000 0000 000000
2016-05-12 09:18:29,0.04,0.96,0.00,21.34,26.00,30.06,14.72,49.55,1013.73,2042.00,3116.60,2897.26,3259.93,599.93,597.61,39.19,0000 0000 0000 0000 000000
2016-05-12 09:23:30,0.02,0.97,0.00,21.34,26.02,30.09,14.73,49.58,1013.71,2042.00,3115.91,2896.97,3259.15,599.91,597.57,39.24,0000 0000 0000 0000 000000
2016-05-12 09:28:31,0.05,0.97,0.00,21.33,26.03,30.12,14.57,48.97,1013.71,2041.98,3115.08,2896.29,3258.50,599.58,597.41,39.29,0000 0000 0000 0000 000000
2016-05-12 09:33:33,0.02,0.97,0.00,21.32,26.05,30.03,14.69,49.54,1013.73,2041.99,3114.24,2895.95,3257.85,600.12,597.83,39.35,0000 0000 0000 0000 000000
2016-05-12 09:38:34,0.04,0.97,0.00,21.30,26.06,30.00,14.57,49.42,1013.74,2041.95,3113.48,2895.17,3257.06,599.65,597.34,39.40,0000 0000 0000 0000 000000
2016-05-12 09:43:35,0.02,0.97,0.00,21.29,26.07,30.00,14.70,49.49,1013.82,2041.94,3112.83,2894.94,3256.53,600.02,597.92,39.45,0000 0000 0000 0000 000000
2016-05-12 09:48:37,0.01,0.98,0.00,21.26,26.07,29.93,14.66,49.50,1013.97,2041.78,3112.03,2894.20,3255.96,600.14,598.08,39.50,0000 0000 0000 0000 000000
2016-05-12 09:53:38,0.01,0.98,0.00,21.25,26.08,29.95,14.64,49.37,1014.03,2041.49,3111.34,2893.97,3255.20,599.87,597.92,39.55,0000 0000 0000 0000 000000
2016-05-12 09:58:39,0.03,0.98,0.00,21.23,26.10,29.94,14.68,49.40,1014.13,2041.24,3110.59,2893.21,3254.74,600.00,598.18,39.60,0000 0000 0000 0000 000000
2016-05-12 10:03:40,0.01,0.98,0.00,21.22,26.10,29.95,14.63,49.33,1014.11,2041.23,3110.00,2893.00,3254.04,599.98,598.12,39.65,0000 0000 0000 0000 000000
2016-05-12 10:08:42,0.04,0.98,0.00,21.21,26.10,29.88,14.65,49.25,1014.14,2041.30,3109.29,2892.70,3253.72,599.70,597.99,39.70,0000 0000 0000 0000 000000
2016-05-12 10:13:43,0.02,0.98,0.00,21.19,26.10,29.91,14.60,49.20,1014.14,2041.16,3108.80,2892.06,3253.04,600.25,598.46,39.75,0000 0000 0000 0000 000000
2016-05-12 10:18:44,0.02,0.98,0.00,21.15,26.10,29.91,14.67,49.22,1014.13,2041.13,3108.04,2891.95,3252.65,599.83,598.21,39.80,0000 0000 0000 0000 000000
2016-05-12 10:23:45,0.04,0.98,0.00,21.13,26.10,29.91,14.71,49.21,1014.17,2041.09,3107.35,2891.20,3252.02,599.79,597.82,39.85,0000 0000 0000 0000 000000
2016-05-12 10:28:47,0.01,0.98,0.00,21.11,26.10,29.91,14.70,49.41,1014.17,2041.08,3106.89,2891.00,3251.54,600.15,598.57,39.90,0000 0000 0000 0000 000000
2016-05-12 10:33:48,0.02,0.99,0.00,21.07,26.10,29.90,14.75,49.48,1014.17,2041.07,3106.07,2890.76,3251.00,600.10,598.56,39.95,0000 0000 0000 0000 000000
2016-05-12 10:38:50,0.04,0.99,0.00,21.06,26.10,29.86,14.65,49.17,1014.17,2041.04,3105.47,2890.05,3250.40,600.34,598.87,40.00,0000 0000 0000 0000 000000
2016-05-12 10:43:51,0.01,0.99,0.00,21.04,26.10,29.82,14.80,49.44,1014.17,2041.07,3104.99,2890.00,3250.01,600.37,599.03,40.05,0000 0000 0000 0000 000000
2016-05-12 10:48:52,0.03,0.99,0.00,21.03,26.09,29.84,14.61,49.27,1014.19,2041.10,3104.40,2889.75,3249.73,599.59,598.17,40.10,0000 0000 0000 0000 000000
2016-05-12 10:53:54,0.03,0.99,0.00,21.01,26.07,29.82,14.75,49.37,1014.18,2041.08,3103.93,2889.07,3249.05,599.75,598.39,40.15,0000 0000 0000 0000 000000
2016-05-12 10:58:55,0.02,0.99,0.00,20.99,26.07,29.81,14.69,49.53,1014.19,2041.07,3103.14,2888.99,3248.81,599.81,598.37,40.21,0000 0000 0000 0000 000000
2016-05-12 11:03:56,0.04,1.00,0.00,20.96,26.07,29.78,14.66,49.39,1014.19,2041.19,3102.75,2888.77,3248.08,600.34,599.09,40.26,0000 0000 0000 0000 000000
2016-05-12 11:08:57,0.04,1.00,0.00,20.93,26.05,29.81,14.70,49.45,1014.20,2041.31,3102.02,2888.08,3247.99,599.77,598.58,40.31,0000 0000 0000 0000 000000
2016-05-12 11:13:58,0.01,1.00,0.00,20.92,26.05,29.82,14.73,49.37,1014.20,2041.38,3101.52,2888.00,3247.33,599.98,598.80,40.36,0000 0000 0000 0000 000000
2016-05-12 11:19:00,0.05,1.00,0.00,20.89,26.03,29.82,14.74,49.36,1014.26,2041.72,3101.02,2887.98,3247.01,600.27,599.25,40.41,0000 0000 0000 0000 000000
2016-05-12 11:24:01,0.04,1.00,0.00,20.85,26.02,29.81,14.67,49.14,1014.41,2041.82,3100.71,2887.51,3246.90,599.80,598.89,40.46,0000 0000 0000 0000 000000
2016-05-12 11:29:03,0.02,1.00,0.00,20.83,26.01,29.83,14.75,49.33,1014.39,2041.79,3100.03,2887.04,3246.15,599.98,599.10,40.51,0000 0000 0000 0000 000000
2016-05-12 11:34:04,0.03,1.01,0.00,20.80,26.00,29.82,14.65,49.50,1014.41,2041.91,3099.66,2887.00,3246.00,600.09,599.34,40.56,0000 0000 0000 0000 000000
2016-05-12 11:39:05,0.02,1.01,0.00,20.76,25.98,29.87,14.65,49.45,1014.49,2041.98,3099.04,2886.89,3245.70,600.12,599.45,40.61,0000 0000 0000 0000 000000
2016-05-12 11:44:06,0.03,1.01,0.00,20.72,25.97,29.84,14.70,49.41,1014.53,2041.98,3098.68,2886.30,3245.08,599.77,599.20,40.66,0000 0000 0000 0000 000000
2016-05-12 11:49:07,0.01,1.01,0.00,20.69,25.95,29.73,14.74,49.56,1014.40,2041.99,3098.03,2886.02,3244.99,599.71,599.06,40.71,0000 0000 0000 0000 000000
2016-05-12 11:54:08,0.02,1.01,0.00,20.67,25.93,29.79,14.66,49.45,1014.55,2041.99,3097.72,2885.98,3244.54,599.84,599.43,40.76,0000 0000 0000 0000 000000
2016-05-12 11:59:10,0.03,1.01,0.00,20.64,25.92,29.76,14.71,49.57,1014.54,2041.99,3097.03,2885.58,3244.03,599.73,599.46,40.81,0000 0000 0000 0000 000000
2016-05-12 12:04:11,0.02,1.01,0.00,20.60,25.90,29.73,14.75,49.62,1014.50,2041.99,3096.49,2885.04,3243.87,600.02,599.64,40.86,0000 0000 0000 0000 000000
2016-05-12 12:09:13,0.01,1.02,0.00,20.58,25.87,29.70,14.77,49.55,1014.47,2041.99,3096.01,2885.00,3243.13,600.29,599.97,40.91,0000 0000 0000 0000 000000
2016-05-12 12:14:14,0.01,1.02,0.00,20.56,25.86,29.67,14.78,49.50,1014.55,2041.99,3095.72,2884.98,3243.00,600.54,600.14,40.96,0000 0000 0000 0000 000000
2016-05-12 12:19:15,0.01,1.02,0.00,20.51,25.84,29.69,14.72,49.56,1014.60,2041.99,3095.07,2884.85,3242.96,599.88,599.82,41.01,0000 0000 0000 0000 000000
2016-05-12 12:24:16,0.03,1.02,0.00,20.49,25.82,29.70,14.66,49.50,1014.60,2042.02,3094.94,2884.19,3242.38,599.55,599.56,41.06,0000 0000 0000 0000 000000
2016-05-12 12:29:18,0.01,1.02,0.00,20.46,25.80,29.58,14.79,49.63,1014.65,2042.01,3094.15,2884.00,3242.00,599.99,600.03,41.11,0000 0000 0000 0000 000000
2016-05-12 12:34:19,0.02,1.02,0.00,20.43,25.77,29.59,14.72,49.56,1014.65,2042.12,3093.98,2883.99,3241.96,599.85,600.02,41.16,0000 0000 0000 0000 000000
2016-05-12 12:39:20,0.06,1.02,0.00,20.39,25.75,29.55,14.74,49.52,1014.65,2042.48,3093.36,2883.97,3241.52,600.23,600.49,41.22,0000 0000 0000 0000 000000
2016-05-12 12:44:21,0.05,1.03,0.00,20.38,25.73,29.58,14.69,49.55,1014.65,2042.91,3093.01,2883.59,3241.04,599.59,599.78,41.27,0000 0000 0000 0000 000000
2016-05-12 12:49:23,0.03,1.03,0.00,20.36,25.71,29.56,14.70,49.58,1014.66,2042.97,3092.50,2883.05,3240.98,599.65,599.95,41.32,0000 0000 0000 0000 000000
2016-05-12 12:54:24,0.01,1.03,0.00,20.33,25.68,29.53,14.65,49.51,1014.66,2042.99,3092.03,2883.00,3240.78,599.78,600.10,41.37,0000 0000 0000 0000 000000